Stations météo

réclame
Mon MeteoGroup
Aldergrove, Grande-Bretagne (3917): Température de l'air & dewpoint: 12.11.2018 04:00:00 - 18.11.2018 04:00:00 (GMT)Aldergrove, Grande-Bretagne (3917): Température de l'air -20cm & Température de l'air -100cm: 12.11.2018 04:00:00 - 18.11.2018 04:00:00 (GMT)Aldergrove, Grande-Bretagne (3917): Vitesse du vent & gusts: 12.11.2018 04:00:00 - 18.11.2018 04:00:00 (GMT)Aldergrove, Grande-Bretagne (3917): Direction du vent: 12.11.2018 04:00:00 - 18.11.2018 04:00:00 (GMT)Aldergrove, Grande-Bretagne (3917): reduced air pressure: 12.11.2018 04:00:00 - 18.11.2018 04:00:00 (GMT)Aldergrove, Grande-Bretagne (3917): visibility: 12.11.2018 04:00:00 - 18.11.2018 04:00:00 (GMT)Aldergrove, Grande-Bretagne (3917): Ensoleillement: 12.11.2018 04:00:00 - 18.11.2018 04:00:00 (GMT)Aldergrove, Grande-Bretagne (3917): Quantités de précipitations: 12.11.2018 04:00:00 - 18.11.2018 04:00:00 (GMT)
Date & Time tt [°C] td [°C] tt -20cm [°C] tt -100cm [°C] ff [km/h] ff [knt] fx [km/h] fx [knt] dd ppp [hPa] vv [km] sd [min] rr [mm]
18.11.2018 04:00:00 7,7 4,7 - - 22 12 - - E 1027,7 16 0 0,0
18.11.2018 03:00:00 8,0 4,4 - - 16 9 - - E 1027,8 19 0 0,0
18.11.2018 02:00:00 8,5 4,3 - - 15 8 - - E 1027,6 21 0 0,0
18.11.2018 01:00:00 7,4 4,6 - - 8 4 - - NE 1027,8 18 0 0,0
18.11.2018 00:00:00 8,6 5,0 - - 11 6 - - E 1027,4 20 - 0,0
17.11.2018 23:00:00 8,8 5,2 - - 15 8 - - ENE 1027,1 17 0 0,0
17.11.2018 22:00:00 9,2 5,6 - - 22 12 - - E 1026,4 13 0 0,0
17.11.2018 21:00:00 9,2 5,8 - - 21 11 - - E 1026,2 12 0 0,0
17.11.2018 20:00:00 9,6 6,2 - - 11 6 - - E 1026,3 10 0 0,0
17.11.2018 19:00:00 9,5 6,0 - - 22 12 - - E 1026,2 10 0 0,0
17.11.2018 18:00:00 9,2 6,3 - - 21 11 - - E 1025,8 9 0 0,0
17.11.2018 17:00:00 9,1 6,9 - - 24 13 46 25 E 1025,8 9 0 0,0
17.11.2018 16:00:00 9,6 6,8 - - 28 15 - - E 1025,5 11 0 0,0
17.11.2018 15:00:00 9,6 7,7 - - 18 10 - - E 1025,7 10 0 0,0
17.11.2018 14:00:00 9,6 8,1 - - 29 16 - - ESE 1025,6 9 0 0,0
17.11.2018 13:00:00 9,9 8,9 - - 26 14 - - ESE 1025,5 7 0 0,0
17.11.2018 12:00:00 9,8 9,1 - - 24 13 - - E 1025,9 4,5 0 0,0
17.11.2018 11:00:00 10,2 9,1 - - 21 11 - - E 1025,9 5 0 0,0
17.11.2018 10:00:00 10,2 9,4 - - 22 12 - - ESE 1025,6 4,6 0 0,0
17.11.2018 09:00:00 10,1 9,3 9,9 10,7 18 10 - - ESE 1025,5 5 0 0,0
17.11.2018 08:00:00 10,2 9,3 - - 21 11 - - ESE 1024,7 6 0 0,0
17.11.2018 07:00:00 10,6 9,5 - - 24 13 - - ESE 1024,1 5 0 0,0
17.11.2018 06:00:00 11,2 9,7 - - 22 12 - - ESE 1023,6 9 0 0,0
17.11.2018 05:00:00 11,2 9,9 - - 21 11 - - E 1023,4 6 0 0,0
17.11.2018 04:00:00 11,3 9,6 - - 22 12 - - ESE 1023,4 7 0 0,0
17.11.2018 03:00:00 11,5 9,5 - - 21 11 - - ESE 1023,5 7 0 0,0
17.11.2018 02:00:00 11,8 10,0 - - 24 13 - - ESE 1023,5 7 0 0,0
17.11.2018 01:00:00 11,9 10,4 - - 21 11 - - ESE 1023,4 6 0 0,0
17.11.2018 00:00:00 12,1 10,0 - - 16 9 - - ESE 1023,4 9 - 0,0
16.11.2018 23:00:00 12,2 9,9 - - 16 9 - - ESE 1023,3 9 0 0,0
16.11.2018 22:00:00 12,1 9,8 - - 16 9 - - ESE 1023,2 10 0 0,0
16.11.2018 21:00:00 12,1 9,9 - - 21 11 - - ESE 1022,8 11 0 0,0
16.11.2018 20:00:00 12,4 10,0 - - 21 11 - - ESE 1022,5 13 0 0,0
16.11.2018 19:00:00 12,6 10,1 - - 26 14 - - SE 1022,3 17 0 0,0
16.11.2018 18:00:00 12,7 9,9 - - 22 12 - - SE 1022,1 17 0 0,0
16.11.2018 17:00:00 12,7 10,0 - - 18 10 - - SE 1021,7 17 0 0,0
16.11.2018 16:00:00 12,8 10,5 - - 24 13 - - SE 1021,3 15 0 0,0
16.11.2018 15:00:00 13,0 10,5 - - 16 9 - - SE 1021,1 21 0 0,0
16.11.2018 14:00:00 13,0 10,7 - - 24 13 - - SE 1020,8 18 0 0,0
16.11.2018 13:00:00 13,0 11,0 - - 18 10 - - SE 1020,5 19 0 0,0
16.11.2018 12:00:00 12,9 10,7 - - 18 10 - - SSE 1020,5 17 0 0,0
16.11.2018 11:00:00 12,8 11,0 - - 21 11 - - SE 1020,6 12 0 0,0
16.11.2018 10:00:00 12,4 10,8 - - 18 10 - - SE 1020,5 13 0 0,0
16.11.2018 09:00:00 11,7 10,6 9,9 10,5 18 10 - - SE 1020,1 10 0 0,0
16.11.2018 08:00:00 10,7 9,7 - - 15 8 - - ESE 1019,4 14 0 0,0
16.11.2018 07:00:00 8,9 7,8 - - 16 9 - - ESE 1018,9 20 0 0,0
16.11.2018 06:00:00 8,1 6,6 - - 16 9 - - ESE 1018,6 30 0 0,0
16.11.2018 05:00:00 7,3 5,4 - - 15 8 - - ESE 1018,3 24 0 0,0
16.11.2018 04:00:00 7,1 5,6 - - 13 7 - - SE 1018,5 29 0 0,0
16.11.2018 03:00:00 6,8 5,7 - - 13 7 - - SE 1018,2 29 0 0,0
16.11.2018 02:00:00 7,4 6,3 - - 9 5 - - SE 1018,3 26 0 0,0
16.11.2018 01:00:00 7,9 6,7 - - 13 7 - - SSE 1017,8 29 0 0,0
16.11.2018 00:00:00 7,8 6,5 - - 13 7 - - S 1017,8 30 - 0,0
15.11.2018 23:00:00 8,3 6,7 - - 16 9 - - S 1017,0 50 0 0,0
15.11.2018 22:00:00 8,6 7,1 - - 16 9 - - S 1016,0 45 0 0,0
15.11.2018 21:00:00 9,3 7,6 - - 18 10 - - S 1015,2 40 0 0,0
15.11.2018 20:00:00 9,5 7,8 - - 15 8 - - S 1015,0 50 0 0,0
15.11.2018 19:00:00 9,9 7,7 - - 16 9 - - S 1014,1 45 0 0,0
15.11.2018 18:00:00 10,2 7,9 - - 16 9 - - S 1013,0 50 0 0,0
15.11.2018 17:00:00 9,8 8,5 - - 15 8 - - S 1012,6 50 0 0,4
15.11.2018 16:00:00 9,9 8,8 - - 16 9 50 27 SSW 1011,7 7 0 0,4
15.11.2018 15:00:00 13,6 10,8 - - 35 19 59 32 S 1009,6 17 0 0,0
15.11.2018 14:00:00 14,4 10,9 - - 37 20 57 31 SSE 1009,3 14 30 0,0
15.11.2018 13:00:00 13,8 10,6 - - 31 17 52 28 S 1009,6 19 6 0,0
15.11.2018 12:00:00 13,4 9,8 - - 37 20 54 29 S 1009,9 18 36 0,0
15.11.2018 11:00:00 13,3 8,9 - - 34 18 61 33 SSE 1009,9 18 48 0,0
15.11.2018 10:00:00 12,1 8,4 - - 35 19 54 29 SSE 1010,1 21 36 0,0
15.11.2018 09:00:00 12,0 9,2 9,7 10,5 39 21 57 31 SSE 1010,0 18 12 0,0
15.11.2018 08:00:00 12,4 10,5 - - 39 21 57 31 SSE 1009,8 18 0 0,0
15.11.2018 07:00:00 12,3 10,7 - - 29 16 48 26 SSE 1010,0 15 0 0,0
15.11.2018 06:00:00 12,7 11,0 - - 26 14 46 25 SSE 1010,2 24 0 0,0
15.11.2018 05:00:00 12,9 11,1 - - 26 14 - - SSE 1010,2 35 0 0,0
15.11.2018 04:00:00 12,9 11,1 - - 24 13 - - S 1010,4 27 0 0,0
15.11.2018 03:00:00 12,7 11,1 - - 28 15 - - S 1010,3 21 0 0,0
15.11.2018 02:00:00 12,7 10,9 - - 24 13 - - S 1010,4 29 0 0,0
15.11.2018 01:00:00 12,9 10,9 - - 24 13 - - SSE 1010,4 30 0 0,0
15.11.2018 00:00:00 12,9 11,0 - - 28 15 - - S 1010,4 30 - 0,0
14.11.2018 23:00:00 13,0 10,9 - - 26 14 - - S 1010,6 29 0 0,0
14.11.2018 22:00:00 13,0 11,0 - - 29 16 46 25 S 1010,2 27 0 0,0
14.11.2018 21:00:00 13,2 11,2 - - 29 16 - - SSE 1009,8 22 0 0,0
14.11.2018 20:00:00 13,0 11,4 - - 31 17 57 31 SSE 1009,0 12 0 0,0
14.11.2018 19:00:00 13,3 11,5 - - 37 20 59 32 S 1008,8 4,9 0 0,0
14.11.2018 18:00:00 13,7 11,5 - - 34 18 52 28 SSE 1008,3 16 0 0,0
14.11.2018 17:00:00 13,6 11,6 - - 34 18 48 26 SSE 1007,9 16 0 0,0
14.11.2018 16:00:00 13,6 11,6 - - 34 18 52 28 S 1008,2 20 0 0,0
14.11.2018 15:00:00 13,8 11,7 - - 34 18 50 27 S 1008,3 18 0 0,0
14.11.2018 14:00:00 13,9 11,8 - - 31 17 54 29 S 1008,3 22 0 0,0
14.11.2018 13:00:00 14,3 12,0 - - 29 16 48 26 S 1008,2 30 0 0,0
14.11.2018 12:00:00 14,2 12,0 - - 29 16 50 27 S 1008,2 30 0 0,0
14.11.2018 11:00:00 14,1 12,1 - - 29 16 - - S 1007,8 21 0 0,0
14.11.2018 10:00:00 14,0 12,0 - - 26 14 - - S 1007,4 35 0 0,0
14.11.2018 09:00:00 13,9 12,0 8,9 10,5 22 12 - - S 1007,0 35 0 0,0
14.11.2018 08:00:00 13,7 12,1 - - 26 14 48 26 S 1006,5 40 0 0,2
14.11.2018 07:00:00 13,4 12,2 - - 29 16 50 27 S 1006,1 50 0 0,0
14.11.2018 06:00:00 13,1 12,2 - - 28 15 48 26 S 1005,9 24 0 1,0
14.11.2018 05:00:00 12,6 11,9 - - 28 15 - - S 1005,8 20 0 1,2
14.11.2018 04:00:00 12,0 11,3 - - 24 13 - - S 1006,1 11 0 0,4
14.11.2018 03:00:00 11,4 10,5 - - 29 16 46 25 S 1006,4 13 0 1,2
14.11.2018 02:00:00 11,4 10,2 - - 29 16 48 26 S 1007,2 14 0 0,0
14.11.2018 01:00:00 11,4 9,8 - - 29 16 50 27 S 1007,9 45 0 0,2
14.11.2018 00:00:00 11,2 9,5 - - 35 19 52 28 SSE 1009,0 26 - 0,0
13.11.2018 23:00:00 11,0 9,3 - - 31 17 50 27 S 1009,9 21 0 0,8
13.11.2018 22:00:00 11,1 8,7 - - 26 14 - - S 1010,9 13 0 0,0
13.11.2018 21:00:00 11,0 8,2 - - 24 13 - - S 1011,3 26 0 0,0
13.11.2018 20:00:00 11,1 8,1 - - 29 16 - - S 1011,8 29 0 0,0
13.11.2018 19:00:00 10,8 7,8 - - 26 14 - - S 1012,3 30 0 0,0
13.11.2018 18:00:00 10,4 7,4 - - 22 12 - - SSE 1012,8 35 0 0,0
13.11.2018 17:00:00 9,9 7,0 - - 16 9 - - S 1013,1 30 0 0,0
13.11.2018 16:00:00 9,9 6,7 - - 21 11 - - S 1013,3 40 12 0,0
13.11.2018 15:00:00 10,2 6,8 - - 18 10 - - S 1013,3 35 18 0,0
13.11.2018 14:00:00 10,4 6,7 - - 21 11 - - S 1013,6 30 54 0,0
13.11.2018 13:00:00 10,5 7,2 - - 15 8 - - S 1013,6 18 60 0,0
13.11.2018 12:00:00 9,7 7,2 - - 18 10 - - SSW 1013,8 30 60 0,0
13.11.2018 11:00:00 8,8 6,5 - - 21 11 - - SSW 1013,7 30 54 0,0
13.11.2018 10:00:00 7,2 5,9 - - 13 7 - - SSW 1013,1 29 48 0,0
13.11.2018 09:00:00 6,6 5,6 8,7 10,7 9 5 - - SSW 1012,5 21 24 0,0
13.11.2018 08:00:00 7,1 6,1 - - 18 10 - - SW 1011,5 23 0 0,0
13.11.2018 07:00:00 7,2 6,3 - - 21 11 - - SW 1009,8 9 0 0,0
13.11.2018 06:00:00 7,1 5,9 - - 16 9 - - SW 1008,8 21 0 0,0
13.11.2018 05:00:00 7,3 6,2 - - 16 9 - - SW 1007,5 24 0 0,0
13.11.2018 04:00:00 8,3 7,0 - - 18 10 - - WSW 1006,0 25 0 0,0
13.11.2018 03:00:00 8,0 6,9 - - 21 11 - - SW 1004,9 27 0 0,0
13.11.2018 02:00:00 8,4 7,2 - - 26 14 - - WSW 1003,7 22 0 0,0
13.11.2018 01:00:00 8,4 7,2 - - 22 12 - - SW 1002,5 35 0 0,0
13.11.2018 00:00:00 8,2 7,2 - - 21 11 52 28 SW 1001,6 29 - 0,0
12.11.2018 23:00:00 8,4 7,4 - - 16 9 - - SW 1000,6 30 0 0,0
12.11.2018 22:00:00 8,4 7,4 - - 16 9 - - SW 999,7 40 0 0,0
12.11.2018 21:00:00 8,7 7,2 - - 16 9 - - S 998,9 19 0 0,0
12.11.2018 20:00:00 9,1 6,6 - - 15 8 - - S 998,5 40 0 0,0
12.11.2018 19:00:00 9,1 6,3 - - 18 10 - - SSE 998,0 35 0 0,0
12.11.2018 18:00:00 9,6 6,4 - - 16 9 - - SSE 997,8 35 0 0,0
12.11.2018 17:00:00 9,5 6,2 - - 15 8 - - S 997,1 40 6 0,0
12.11.2018 16:00:00 10,0 6,4 - - 18 10 - - S 996,6 30 18 0,0
12.11.2018 15:00:00 10,6 6,1 - - 22 12 - - S 996,7 40 18 0,0
12.11.2018 14:00:00 11,0 6,5 - - 22 12 - - S 996,7 40 30 0,0
12.11.2018 13:00:00 10,2 6,6 - - 22 12 - - S 996,6 30 0 0,0
12.11.2018 12:00:00 9,9 6,5 - - 24 13 - - S 996,8 30 18 0,0
12.11.2018 11:00:00 9,7 6,9 - - 24 13 - - S 996,8 35 0 0,0
12.11.2018 10:00:00 9,3 6,6 - - 24 13 - - S 996,7 28 30 0,0
12.11.2018 09:00:00 8,6 6,3 8,7 10,7 22 12 - - S 996,5 30 0 0,0
12.11.2018 08:00:00 8,4 6,3 - - 21 11 - - S 996,1 21 0 0,0
12.11.2018 07:00:00 8,5 6,3 - - 22 12 - - S 996,0 24 0 0,0
12.11.2018 06:00:00 8,2 6,2 - - 21 11 - - S 995,7 24 0 0,0
12.11.2018 05:00:00 7,9 6,0 - - 22 12 - - S 995,3 27 0 0,0
12.11.2018 04:00:00 8,2 6,3 - - 24 13 - - SSE 994,9 23 0 0,0

tt = Température de l'air
td = dewpoint
tt -20cm = Température de l'air -20cm
tt -100cm = Température de l'air -100cm
ff = Vitesse du vent
fx = gusts
dd = Direction du vent
ppp = reduced air pressure
vv = visibility
sd = Ensoleillement
rr = Quantités de précipitations

stations d'obs. à proximité